Flag for Canada Weather past 2 weeks in Medicine Hat, Alberta, Canada

Now
57 °F

Broken clouds.


Feels Like: 57 °F
Forecast: 60 / 78 °F
Wind: 5 mph from Southwest

Location: Medicine Hat

Current Time: Aug 20, 2014 at 9:04:16 AM

Latest Report: Aug 20, 2014 at 8:00 AM


Visibility: 15 mi

Pressure: 29.76 "Hg

Humidity: 94%

Dew point: 55 °F

Location of Medicine HatLocation

Historic Weather in Medicine Hat — Graph

°F

Medicine Hat temperature yesterday

Maximum temperature yesterday: 86 °F (at 2:00 PM)
Minimum temperature yesterday: 57 °F (at 6:00 AM)
Average temperature yesterday: 71 °F

Past Weeks' High & Low Weather Summary

 TemperatureHumidityPressure
High95 °F (Aug 12, 4:00 PM)100% (Aug 18, 6:00 AM)30.19 "Hg (Aug 18, 6:00 AM)
Low52 °F (Aug 11, 5:00 AM)20% (Aug 12, 2:00 PM)29.56 "Hg (Aug 19, 8:00 PM)
Average72 °F60%29.92 "Hg
* Reported Aug 5 7:00 AM — Aug 20 7:00 AM, Medicine Hat, Weather by CustomWeather, © 2014

Note: Actual official high and low records may vary slightly from our data, if they occured in-between our weather recording intervals... More about our weather records

Advertising

Medicine Hat weather history for previous 24 hours

 ConditionsComfort  
Time TempWeatherWind HumidityBarometerVisibility
7:00 AM
Aug 20
55 °FOvercast.6 mph100%29.75 "Hg15 mi
6:00 AM57 °FOvercast.3 mph94%29.73 "Hg9 mi
5:00 AM55 °FPassing clouds.No wind100%29.71 "Hg9 mi
4:00 AM57 °FClear.7 mph94%29.70 "Hg9 mi
3:00 AM55 °FClear.7 mph100%29.69 "Hg9 mi
2:00 AM57 °FClear.6 mph94%29.67 "Hg9 mi
1:00 AM59 °FPassing clouds.9 mph94%29.67 "Hg9 mi
12:00 AM61 °FMostly cloudy.7 mph94%29.68 "Hg9 mi
11:00 PM
Aug 19
61 °FPassing clouds.6 mph88%29.64 "Hg9 mi
10:00 PM61 °FClear.14 mph88%29.66 "Hg9 mi
9:49 PM61 °FThundershowers. Passing clouds.14 mph88%29.64 "Hg9 mi
9:04 PM72 °FOvercast.22 mph65%29.60 "Hg15 mi
8:47 PM75 °FCloudy.20 mph50%29.58 "Hg15 mi
8:00 PM79 °FMore clouds than sun.3 mph42%29.56 "Hg15 mi
7:00 PM82 °FMore clouds than sun.3 mph35%29.57 "Hg15 mi
6:00 PM86 °FOvercast.9 mph33%29.57 "Hg15 mi
5:00 PM86 °FOvercast.8 mph31%29.57 "Hg15 mi
4:00 PM86 °FMore clouds than sun.14 mph33%29.59 "Hg10 mi
3:00 PM86 °FMore clouds than sun.9 mph35%29.60 "Hg10 mi
2:00 PM86 °FPartly sunny.9 mph35%29.60 "Hg10 mi
1:00 PM82 °FScattered clouds.12 mph42%29.61 "Hg10 mi
12:00 PM79 °FScattered clouds.10 mph51%29.62 "Hg10 mi
11:00 AM75 °FScattered clouds.13 mph54%29.63 "Hg10 mi
10:00 AM72 °FScattered clouds.12 mph61%29.63 "Hg10 mi
9:00 AM70 °FPassing clouds.15 mph60%29.63 "Hg30 mi
Weather by CustomWeather, © 2014

See weather overviewHow to use our weather pages